Probability
0 0 0 0 0 0 0 0 0 0 0 0 0 0 0 0 0 0 0 0 0 0 0 0 0 0 0 0 0 0 0 0 0 0 0 0 0 0 0 0 0 0 0
0 0 0 0 0 0 0 0 0 0 0 0 0 0 0 0 0 0 0 0 0 0 0 0 0 0 0 0 0 0 0 0 0 0 0 0 0 0 0 0 0 0 0
0 0 0 0 0 0 0 0 0 0 0 0 0 0 0 0 0 0 0 0 0 0 0 0 0 0 0 0 0 0 0 0 0 0 0 0 0 0 0 0 0 0 0
0 0 0 0 0 0 0 0 0 0 0 0 0 0 0 0 0 0 0 0 0 0 0 0 0 0 0 0 0 0 0 0 0 0 0 0 0 0 0 0 0 0 0
0 0 0 0 0 0 0 0 0 0 0 0 0 0 0 0 0 0 0 0 0 0 0 0 0 0 0 0 0 0 0 0 0 0 0 0 0 0 0 0 0 0 0
0 0 0 0 0 0 0 0 0 0 0 0 0 0 0 0 0 0 0 0 0 0 0 0 0 0 0 0 0 0 0 0 0 0 0 0 0 0 0 0 0 0 0
0 0 0 0 0 0 0 0 0 0 0 0 0 0 0 0 0 0 0 0 0 0 0 0 0 0 0 0 0 0 0 0 0 0 0 0 0 0 0 0 0 0 0
0 0 0 0 0 0 0 0 0 0 0 0 0 0 0 0 0 0 0 0 0 0 0 0 0 0 0 0 0 0 0 0 0 0 0 0 0 0 0 0 0 0 0
0 0 0 0 0 0 0 0 0 0 0 0 0 0 0 0 0 0 0 0 0 0 0 0 0 0 0 0 0 0 0 0 0 0 0 0 0 0 0 0 0 0 0
0 0 0 0 0 0 0 0 0 0 0 0 0 0 0 0 0 0 0 0 0 0 0 0 0 0 0 0 0 0 0 0 0 0 0 0 0 0 0 0 0 0 0
0 0 0 0 0 0 0 0 0 0 0 0 0 0 0 0 0 0 0 0 0 0 0 0 0 0 0 0 0 0 0 0 0 0 0 0 0 0 0 0 0 0 0
0 0 0 0 0 0 0 0 0 0 0 0 0 0 0 0 0 0 0 0 0 0 0 0 0 0 0 0 0 0 0 0 0 0 0 0 0 0 0 0 0 0 0
0 0 0 0 0 0 0 0 0 0 0 0 0 0 0 0 0 0 0 0 0 0 0 0 0 0 0 0 0 0 0 0 0 0 0 0 0 0 0 0 0 0 0
0 0 0 0 0 0 0 0 0 0 0 0 0 0 0 0 0 0 0 0 0 0 0 0 0 0 0 0 0 0 0 0 0 0 0 0 0 0 0 0 0 0 0
0 0 0 0 0 0 0 0 0 0 0 0 0 0 0 0 0 0 0 0 0 0 0 0 0 0 0 0 0 0 0 0 0 0 0 0 0 0 0 0 0 0 0
0 0 0 0 0 0 0 0 0 0 0 0 0 0 0 0 0 0 0 0 0 0 0 0 0 0 0 0 0 0 0 0 0 0 0 0 0 0 0 0 0 0 0
0 0 0 0 0 0 0 0 0 0 0 0 0 0 0 0 0 0 0 0 0 0 0 0 0 0 0 0 0 0 0 0 0 0 0 0 0 0 0 0 0 0 0
0 0 0 0 0 0 0 0 0 0 0 0 0 0 0 0 0 0 0 0 0 0 0 0 0 0 0 0 0 0 0 0 0 0 0 0 0 0 0 0 0 0 0
0 0 0 0 0 0 0 0 0 0 0 0 0 0 0 0 0 0 0 0 0 0 0 0 0 0 0 0 0 0 0 0 0 0 0 0 0 0 0 0 0 0 0
0 0 0 0 0 0 0 0 0 0 0 0 0 0 0 0 0 0 0 0 0 0 0 0 0 0 0 0 0 0 0 0 0 0 0 0 0 0 0 0 0 0 0
0 0 0 0 0 0 0 0 0 0 0 0 0 0 0 0 0 0 0 0 0 0 0 0 0 0 0 0 0 0 0 0 0 0 0 0 0 0 0 0 0 0 0
0 0 0 0 0 0 0 0 0 0 0 0 0 0 0 0 0 0 0 0 0 0 0 0 0 0 0 0 0 0 0 0 0 0 0 0 0 0 0 0 0 0 0
0 0 0 0 0 0 0 0 0 0 0 0 0 0 0 0 0 0 0 0 0 0 0 0 0 0 0 0 0 0 0 0 0 0 0 0 0 0 0 0 0 0 0
0 0 0 0 0 0 0 0 0 0 0 0 0 0 0 0 0 0 0 0 0 0 0 0 0 0 0 0 0 0 0 0 0 0 0 0 0 0 0 0 0 0 0
0 0 0 0 0 0 0 0 0 0 0 0 0 0 0 0 0 0 0 0 0 0 0 0 0 0 0 0 0 0 0 0 0 0 0 0 0 0 0 0 0 0 0
0 0 0 0 0 0 0 0 0 0 0 0 0 0 0 0 0 0 0 0 0 0 0 0 0 0 0 0 0 0 0 0 0 0 0 0 0 0 0 0 0 0 0
Height
5866 5865 5863 5861 5859 5857 5855 5852 5849 5847 5844 5841 5839 5837 5834 5832 5830 5827 5825 5823 5821 5818 5816 5814 5812 5810 5809 5808 5806 5805 5804 5804 5803 5803 5803 5804 5805 5806 5808 5810 5812 5814 5816
5864 5863 5861 5860 5857 5855 5853 5850 5847 5844 5842 5839 5836 5834 5832 5830 5828 5825 5823 5821 5819 5816 5814 5812 5810 5808 5806 5804 5803 5802 5801 5800 5800 5800 5800 5800 5801 5802 5803 5805 5807 5808 5811
5862 5861 5859 5857 5855 5853 5850 5847 5845 5842 5839 5836 5833 5831 5829 5827 5825 5822 5820 5818 5816 5813 5811 5809 5807 5804 5802 5801 5799 5798 5796 5795 5795 5795 5795 5795 5796 5797 5798 5799 5801 5803 5805
5860 5858 5856 5855 5852 5850 5847 5844 5841 5838 5836 5833 5830 5828 5826 5823 5821 5819 5816 5814 5812 5809 5807 5805 5802 5800 5798 5796 5794 5792 5791 5790 5789 5789 5789 5789 5790 5791 5792 5793 5794 5796 5798
5856 5855 5853 5851 5849 5846 5844 5841 5838 5835 5831 5829 5826 5823 5821 5819 5817 5815 5812 5810 5807 5805 5802 5799 5796 5794 5792 5789 5787 5786 5784 5783 5782 5782 5782 5783 5783 5784 5785 5786 5787 5789 5791
5853 5851 5849 5847 5845 5842 5839 5836 5833 5830 5827 5824 5821 5819 5816 5814 5811 5809 5807 5804 5801 5799 5796 5793 5790 5787 5784 5782 5780 5778 5777 5775 5774 5774 5774 5775 5776 5776 5777 5778 5779 5781 5783
5848 5846 5845 5842 5840 5837 5834 5831 5828 5824 5821 5818 5815 5812 5810 5807 5805 5802 5800 5797 5794 5791 5788 5785 5782 5778 5775 5773 5771 5769 5768 5766 5765 5765 5765 5766 5767 5768 5768 5769 5770 5772 5774
5843 5841 5839 5837 5834 5831 5828 5825 5822 5818 5815 5812 5808 5806 5803 5800 5797 5794 5792 5789 5785 5782 5778 5775 5771 5768 5764 5762 5761 5759 5757 5756 5755 5754 5755 5756 5757 5758 5759 5760 5761 5763 5765
5837 5835 5833 5830 5828 5825 5822 5818 5815 5811 5808 5804 5801 5798 5794 5791 5788 5785 5782 5779 5775 5771 5767 5763 5759 5755 5752 5749 5747 5746 5745 5744 5742 5742 5743 5744 5745 5747 5748 5749 5751 5753 5756
5830 5828 5826 5823 5821 5817 5814 5810 5807 5803 5799 5796 5792 5788 5785 5781 5777 5773 5770 5766 5763 5759 5754 5749 5744 5740 5737 5734 5732 5731 5730 5729 5728 5728 5729 5731 5732 5734 5736 5738 5740 5742 5745
5823 5821 5818 5815 5812 5809 5806 5802 5798 5794 5790 5786 5782 5778 5773 5769 5765 5760 5756 5751 5747 5743 5739 5734 5729 5724 5721 5718 5715 5714 5713 5712 5712 5712 5714 5716 5718 5721 5723 5725 5728 5730 5734
5815 5812 5810 5806 5803 5800 5796 5792 5788 5784 5779 5775 5770 5766 5761 5756 5751 5746 5741 5736 5730 5726 5722 5717 5712 5708 5704 5700 5698 5696 5695 5694 5695 5696 5697 5700 5703 5706 5708 5711 5714 5717 5721
5806 5803 5800 5797 5793 5789 5785 5781 5777 5772 5767 5763 5758 5753 5748 5742 5736 5730 5725 5719 5713 5708 5703 5699 5694 5689 5686 5683 5680 5678 5677 5676 5676 5678 5680 5683 5686 5689 5692 5696 5699 5703 5706
5796 5793 5790 5786 5782 5778 5774 5769 5765 5760 5754 5749 5744 5739 5733 5727 5720 5714 5708 5702 5697 5691 5685 5681 5676 5671 5667 5663 5661 5659 5658 5657 5658 5660 5662 5665 5668 5672 5676 5680 5684 5688 5692
5786 5782 5779 5775 5771 5767 5762 5757 5752 5746 5740 5734 5729 5723 5717 5711 5704 5697 5690 5685 5678 5672 5666 5662 5657 5652 5648 5644 5641 5640 5639 5638 5639 5641 5643 5647 5650 5654 5659 5663 5668 5672 5677
5774 5771 5767 5763 5759 5754 5749 5744 5738 5732 5726 5719 5712 5706 5699 5693 5686 5679 5672 5666 5659 5652 5647 5642 5637 5632 5628 5625 5622 5621 5621 5620 5620 5621 5624 5628 5633 5637 5642 5647 5651 5656 5661
5762 5759 5754 5750 5746 5741 5736 5730 5725 5719 5711 5704 5696 5689 5682 5675 5667 5660 5654 5647 5641 5634 5628 5623 5618 5614 5610 5607 5605 5604 5604 5603 5603 5603 5606 5611 5615 5620 5624 5629 5635 5640 5645
5749 5745 5741 5737 5732 5727 5721 5715 5709 5703 5697 5690 5681 5672 5664 5657 5650 5642 5635 5629 5623 5616 5609 5605 5601 5597 5593 5591 5589 5587 5587 5586 5586 5587 5589 5593 5598 5602 5607 5613 5618 5624 5630
5736 5732 5727 5722 5717 5711 5705 5699 5693 5686 5680 5673 5665 5657 5648 5640 5632 5625 5616 5609 5603 5598 5592 5587 5583 5579 5576 5574 5572 5570 5569 5569 5569 5570 5572 5575 5580 5584 5589 5595 5601 5607 5613
5721 5717 5712 5707 5702 5696 5690 5683 5676 5669 5662 5655 5647 5639 5631 5623 5616 5608 5600 5592 5585 5580 5575 5570 5566 5562 5559 5556 5554 5553 5552 5552 5552 5553 5555 5558 5562 5566 5572 5578 5584 5590 5597
5707 5702 5696 5691 5685 5679 5673 5666 5659 5651 5644 5637 5629 5620 5612 5604 5597 5589 5582 5574 5567 5562 5557 5552 5548 5545 5541 5539 5537 5535 5534 5535 5535 5536 5538 5541 5545 5550 5556 5561 5567 5574 5581
5691 5686 5680 5675 5669 5662 5655 5648 5641 5633 5626 5618 5611 5602 5594 5585 5578 5570 5563 5556 5550 5544 5539 5534 5531 5527 5524 5522 5520 5518 5518 5518 5519 5520 5522 5525 5529 5534 5540 5546 5552 5559 5566
5674 5669 5663 5657 5651 5644 5638 5630 5623 5615 5607 5599 5592 5584 5576 5568 5560 5552 5545 5539 5532 5527 5522 5517 5514 5511 5508 5505 5503 5502 5502 5502 5503 5505 5507 5511 5515 5520 5526 5532 5538 5545 5553
5657 5651 5646 5639 5633 5626 5619 5612 5604 5597 5589 5581 5573 5565 5558 5550 5542 5535 5528 5522 5516 5511 5506 5502 5498 5496 5493 5490 5489 5487 5487 5488 5489 5490 5493 5497 5502 5506 5512 5518 5524 5532 5539
5639 5633 5627 5621 5614 5608 5601 5594 5586 5578 5570 5563 5555 5547 5540 5532 5525 5518 5512 5506 5500 5495 5491 5487 5484 5481 5479 5476 5475 5474 5474 5474 5475 5477 5480 5484 5489 5494 5499 5505 5512 5519 5526
5621 5615 5609 5602 5595 5589 5582 5575 5568 5560 5552 5545 5537 5530 5522 5515 5508 5502 5496 5490 5485 5481 5477 5474 5470 5467 5465 5463 5462 5461 5461 5461 5463 5464 5467 5471 5477 5482 5487 5493 5500 5507 5514
Wind_Speed
5 6 8 9 10 11 12 13 14 15 16 15 15 15 16 16 16 17 17 17 17 17 17 17 16 15 14 13 12 12 11 11 11 12 14 16 17 18 19 20 22 23 25
7 8 9 10 11 12 13 14 15 16 17 17 17 17 17 17 17 18 18 18 18 18 18 18 18 17 17 15 15 15 14 14 14 14 15 16 17 18 20 21 22 23 25
8 9 10 11 12 13 14 16 16 17 18 18 18 18 19 19 20 20 20 20 20 21 20 20 20 20 20 19 18 18 17 17 16 17 17 18 19 20 21 23 24 25 26
10 11 12 13 14 15 16 17 18 18 19 19 19 19 20 20 21 22 22 22 23 23 24 24 23 23 22 22 22 21 21 20 19 19 19 20 21 21 23 24 25 26 28
12 13 14 15 16 17 18 19 20 20 21 21 21 21 21 22 23 24 24 25 25 26 26 27 27 27 26 25 25 24 23 23 23 22 22 22 23 23 25 25 26 27 28
14 15 16 17 18 19 20 21 22 23 23 23 23 23 24 25 25 26 27 28 28 29 30 30 31 30 30 29 28 28 27 27 26 25 25 25 26 26 27 28 28 29 30
17 18 19 20 21 22 23 24 25 25 26 26 26 27 27 28 29 30 31 32 32 33 33 34 34 34 33 32 31 31 31 31 30 29 28 28 28 29 29 30 30 30 31
20 20 21 22 23 24 25 27 27 28 29 29 30 30 31 32 33 34 35 36 37 37 38 38 39 38 37 36 35 35 34 34 34 34 33 32 32 32 32 32 32 32 33
22 23 24 25 26 27 28 29 31 32 32 32 33 33 35 36 37 38 39 40 41 42 43 43 43 43 42 41 40 39 37 37 37 38 37 36 36 35 35 35 35 35 35
25 26 27 28 29 30 31 33 34 35 35 36 37 37 38 40 41 43 44 45 46 46 47 47 47 47 46 45 44 43 42 41 41 40 40 39 39 38 38 37 37 37 37
28 29 30 31 32 33 35 36 37 38 39 40 41 42 43 44 46 47 48 49 50 50 50 50 50 50 49 48 48 47 46 45 44 44 42 41 41 42 41 40 40 39 39
31 32 33 34 35 36 38 39 41 42 42 43 44 46 47 49 50 51 52 53 54 54 54 53 52 51 51 50 50 49 49 48 47 47 46 45 44 44 44 43 42 42 41
34 35 36 37 38 40 41 43 44 45 46 47 48 49 51 52 54 55 56 56 56 57 56 55 53 52 52 51 51 50 50 50 49 48 48 47 47 47 47 46 45 44 43
37 38 39 40 42 43 45 46 47 49 50 51 52 53 54 56 57 58 58 58 58 59 57 56 55 54 54 53 52 51 51 51 51 50 49 48 49 48 48 48 48 46 45
40 41 42 43 45 46 47 49 50 52 54 55 56 57 57 58 59 60 61 60 60 61 59 57 56 56 55 54 52 52 51 51 51 51 50 50 50 50 49 49 49 48 47
42 43 45 46 47 48 50 52 53 55 57 58 59 60 60 62 62 63 62 62 62 61 59 57 56 56 55 52 50 49 49 49 49 50 49 49 49 50 50 49 50 50 49
45 46 47 48 49 51 53 54 56 57 59 60 61 63 64 64 64 64 63 63 62 61 58 57 55 53 52 50 48 47 47 47 47 49 49 50 49 50 51 50 50 50 50
47 48 49 51 52 54 56 57 58 59 61 62 63 64 65 65 64 64 63 63 62 60 58 56 54 52 51 49 48 47 47 46 46 48 49 50 50 50 51 51 51 51 51
49 51 52 54 55 56 58 59 61 63 64 65 65 65 65 64 64 64 64 63 61 59 57 56 54 52 51 49 48 48 48 46 46 48 49 51 51 50 50 50 51 51 51
51 53 55 56 57 59 60 62 64 65 66 66 66 66 65 65 64 64 63 62 61 59 58 56 53 52 51 50 49 49 48 47 46 47 49 50 51 50 49 49 50 50 50
54 55 57 58 60 61 63 65 66 67 67 67 66 66 66 66 65 64 63 61 60 58 57 55 53 51 50 49 48 47 47 46 45 45 46 49 50 50 48 47 48 49 49
56 58 59 61 62 63 65 66 67 68 68 68 67 67 67 66 65 64 62 60 58 57 55 54 51 49 48 47 46 46 45 44 43 43 43 46 47 48 48 47 48 48 48
59 60 62 63 64 66 67 67 68 69 69 69 68 67 67 66 65 63 61 59 56 54 52 51 49 46 45 44 44 43 42 41 41 41 41 42 44 46 48 46 45 47 48
61 62 64 65 66 67 68 68 69 69 69 68 67 67 66 65 63 61 59 56 54 51 49 47 45 44 43 42 41 41 40 39 40 39 39 41 42 43 45 46 45 46 48
62 64 66 67 68 68 68 69 69 68 68 67 66 65 64 63 61 58 56 53 51 48 45 44 42 41 41 40 38 38 38 37 37 37 37 38 39 40 42 45 45 45 46
64 66 67 67 68 68 68 68 67 66 66 65 65 63 62 60 58 55 53 50 47 45 43 41 40 39 38 38 36 35 35 35 36 36 35 36 39 40 40 41 43 44 44
Wind_Direction
334 339 343 345 347 347 346 346 345 345 346 345 344 343 343 343 342 341 339 340 340 339 337 336 335 331 326 318 311 303 295 285 271 259 251 244 239 236 232 229 227 228 228
319 326 331 334 336 339 340 340 339 339 339 338 337 336 337 337 337 336 335 335 334 333 331 330 328 325 320 314 307 301 295 286 275 264 255 250 244 238 236 234 231 231 230
311 317 321 325 328 330 332 334 333 332 332 331 331 329 329 330 331 331 330 329 328 327 325 324 322 319 314 308 303 299 294 286 277 268 259 253 247 242 240 238 234 234 233
305 310 314 317 320 323 325 327 327 327 327 326 325 323 324 324 325 325 326 325 324 322 320 319 317 314 311 306 301 296 292 286 278 270 262 255 250 246 244 242 240 237 235
301 306 309 311 314 316 318 320 321 321 320 320 319 318 318 318 319 319 320 320 319 318 316 314 312 310 307 304 299 293 290 285 279 271 263 257 251 248 246 245 243 240 238
300 304 306 308 310 311 313 315 316 315 314 314 314 314 314 314 315 315 315 314 314 313 312 311 309 306 304 300 296 290 286 283 278 273 266 260 255 251 248 247 244 242 240
298 301 303 305 307 308 310 311 312 312 311 310 310 310 310 310 311 311 311 311 310 309 308 307 305 304 301 297 293 289 285 280 275 270 265 262 257 255 251 248 246 245 243
296 299 302 304 305 306 308 309 310 310 309 308 307 307 307 307 308 308 308 308 308 306 305 303 302 300 298 295 291 288 284 280 274 269 264 259 257 256 253 250 248 246 245
296 298 301 303 304 304 306 307 307 307 307 306 306 305 305 305 305 305 305 305 305 304 303 302 300 297 295 293 289 286 283 279 274 270 263 258 255 253 252 250 249 248 246
296 298 299 301 302 303 304 305 306 306 305 304 304 303 303 303 303 304 304 303 303 302 301 300 298 296 293 291 287 284 281 277 273 269 263 259 255 252 250 250 249 247 246
296 297 298 300 301 302 303 303 304 305 304 303 302 302 301 301 302 303 303 302 302 301 300 298 296 293 291 288 285 282 279 277 273 268 263 259 256 253 250 248 247 247 246
296 297 297 299 300 301 302 303 303 304 304 303 302 302 301 301 301 302 302 302 301 301 300 298 295 292 289 286 282 279 277 275 271 267 262 257 255 253 250 248 247 246 245
295 296 298 299 299 300 301 302 303 303 303 303 302 302 302 301 301 302 302 302 302 301 299 297 295 291 288 284 281 278 275 272 269 266 262 257 253 251 249 247 247 246 245
294 296 297 299 300 300 301 302 303 303 303 304 303 302 302 302 302 302 302 302 301 300 298 296 294 291 288 284 280 276 273 271 268 264 262 257 253 250 248 247 245 244 244
294 296 297 299 300 301 301 302 303 304 304 304 304 303 303 303 303 303 302 301 301 300 298 296 294 291 288 284 279 275 272 271 267 263 260 255 253 249 247 246 245 243 243
294 295 297 298 299 300 301 302 303 304 304 305 305 305 304 304 304 303 302 301 301 300 297 296 294 291 288 284 279 274 270 270 266 261 257 252 251 248 247 245 244 244 243
293 295 296 297 299 300 301 302 303 304 305 306 306 306 305 304 304 303 302 301 300 300 297 295 293 291 288 284 279 274 270 269 266 260 255 250 248 247 246 244 242 242 242
293 294 296 297 298 300 301 302 303 304 305 305 305 306 305 304 303 303 302 301 300 299 297 295 293 290 287 284 279 275 271 269 265 259 254 249 247 247 245 243 240 241 240
293 294 296 297 299 300 301 302 303 304 305 305 305 305 305 304 303 303 302 301 300 298 295 294 292 289 286 283 280 276 272 269 266 260 255 249 246 247 245 242 240 239 238
293 295 296 298 299 300 301 302 303 304 305 305 305 305 305 304 304 303 302 300 298 297 295 293 291 288 286 283 280 277 273 269 266 261 255 250 246 243 243 241 237 236 236
294 295 297 298 299 300 301 302 303 305 305 305 305 305 305 305 304 304 303 300 298 296 295 292 290 288 285 282 280 277 272 268 264 259 253 248 244 240 240 239 235 233 233
294 296 297 298 299 300 301 302 303 304 305 305 305 305 305 305 305 304 303 300 298 296 294 291 289 287 284 281 279 276 272 266 262 257 251 246 243 240 237 236 232 230 230
295 296 297 298 299 300 301 302 303 304 304 305 305 305 305 305 305 304 302 300 298 296 294 291 289 287 285 282 279 275 270 264 260 257 251 244 241 239 235 233 231 227 226
295 296 297 298 299 300 301 302 303 304 305 305 305 305 305 305 305 303 302 300 298 296 293 290 288 286 284 281 278 275 269 264 259 255 250 243 240 238 235 231 228 225 224
295 296 298 299 299 300 301 302 303 304 305 305 305 305 305 305 304 303 301 300 297 295 292 290 288 285 284 280 277 274 268 262 257 253 249 242 237 236 234 230 226 223 223
296 297 298 298 299 300 302 303 304 304 305 305 306 305 305 304 303 302 301 299 296 294 291 289 287 285 283 279 276 273 267 260 254 250 246 240 234 232 229 226 223 222 222